Location: Boiro
(42.6475°N, 8.8834°W)
Time: 17:33:30
(UTC+01:00)

Tiros 1 despin weight - Pass Details

Date: 05 December 2021
Orbit: 592 x 641 km, 48.2° (Epoch: 20 January)

Event Time Altitude Azimuth Distance (km) Brightness Sun altitude
Rises 14:53:22 0° 249° (WSW) 2,836 ? 21.9°
Reaches altitude 10° 14:55:40 10° 251° (WSW) 1,930 ? 21.7°
Maximum altitude 15:00:04 73° 336° (NNW) 622 ? 21.4°
Drops below altitude 10° 15:04:29 10° 63° (ENE) 1,923 ? 21.1°
Sets 15:06:46 0° 65° (ENE) 2,825 ? 20.9°
